Time,TemperatureF,DewpointF,PressureIn,WindDirection,WindDirectionDegrees,WindSpeedMPH,WindSpeedGustMPH,Humidity,HourlyPrecipIn,Conditions,Clouds,dailyrainin,SoftwareType,DateUTC
2013-02-09 00:06:00,34.2,28.0,30.22,North,353,8.0,23.0,78,0.00,,,0.00,weatherlink.com 1.10,2013-02-09 05:06:00,
2013-02-09 00:21:00,34.0,28.0,30.22,NW,326,12.0,23.0,78,0.00,,,0.00,weatherlink.com 1.10,2013-02-09 05:21:00,
2013-02-09 00:37:00,33.8,28.0,30.22,NNW,338,14.0,23.0,79,0.00,,,0.00,weatherlink.com 1.10,2013-02-09 05:37:00,
2013-02-09 00:52:00,33.6,28.0,30.22,WNW,302,7.0,25.0,79,0.00,,,0.00,weatherlink.com 1.10,2013-02-09 05:52:00,
2013-02-09 01:07:00,33.4,28.0,30.21,NNW,336,12.0,27.0,80,0.00,,,0.00,weatherlink.com 1.10,2013-02-09 06:07:00,
2013-02-09 01:22:00,33.1,27.0,30.21,NNE,17,12.0,21.0,79,0.00,,,0.00,weatherlink.com 1.10,2013-02-09 06:22:00,
2013-02-09 01:37:00,33.0,27.0,30.22,North,354,15.0,27.0,78,0.00,,,0.00,weatherlink.com 1.10,2013-02-09 06:37:00,
2013-02-09 01:52:00,32.9,26.0,30.22,North,5,17.0,22.0,77,0.00,,,0.00,weatherlink.com 1.10,2013-02-09 06:52:00,
2013-02-09 02:07:00,32.8,27.0,30.23,North,355,12.0,28.0,78,0.00,,,0.00,weatherlink.com 1.10,2013-02-09 07:07:00,
2013-02-09 02:22:00,32.8,27.0,30.24,NNW,332,14.0,26.0,78,0.00,,,0.00,weatherlink.com 1.10,2013-02-09 07:22:00,
2013-02-09 02:37:00,32.7,27.0,30.25,NNW,346,12.0,22.0,78,0.00,,,0.00,weatherlink.com 1.10,2013-02-09 07:37:00,
2013-02-09 02:52:00,32.7,27.0,30.25,NNW,340,19.0,23.0,79,0.00,,,0.00,weatherlink.com 1.10,2013-02-09 07:52:00,
2013-02-09 03:07:00,32.5,26.0,30.25,NNW,348,9.0,22.0,78,0.00,,,0.00,weatherlink.com 1.10,2013-02-09 08:07:00,
2013-02-09 03:22:00,32.4,27.0,30.26,NNE,19,15.0,23.0,79,0.00,,,0.00,weatherlink.com 1.10,2013-02-09 08:22:00,
2013-02-09 03:37:00,32.4,27.0,30.26,NW,325,13.0,22.0,80,0.00,,,0.00,weatherlink.com 1.10,2013-02-09 08:37:00,
2013-02-09 03:52:00,32.2,27.0,30.26,NNW,348,12.0,15.0,81,0.00,,,0.00,weatherlink.com 1.10,2013-02-09 08:52:00,
2013-02-09 04:07:00,32.0,27.0,30.26,NNW,340,9.0,21.0,81,0.00,,,0.00,weatherlink.com 1.10,2013-02-09 09:07:00,
2013-02-09 04:22:00,31.7,26.0,30.26,NNW,345,13.0,18.0,80,0.00,,,0.00,weatherlink.com 1.10,2013-02-09 09:22:00,
2013-02-09 04:37:00,31.6,26.0,30.27,North,349,15.0,18.0,81,0.00,,,0.00,weatherlink.com 1.10,2013-02-09 09:37:00,
2013-02-09 04:52:00,31.3,26.0,30.27,NW,316,12.0,20.0,80,0.00,,,0.00,weatherlink.com 1.10,2013-02-09 09:52:00,
2013-02-09 05:07:00,31.2,25.0,30.28,NNW,341,16.0,20.0,79,0.00,,,0.00,weatherlink.com 1.10,2013-02-09 10:07:00,
2013-02-09 05:22:00,31.0,25.0,30.29,NNW,346,16.0,22.0,79,0.00,,,0.00,weatherlink.com 1.10,2013-02-09 10:22:00,
2013-02-09 05:37:00,30.8,25.0,30.30,NW,322,13.0,24.0,80,0.00,,,0.00,weatherlink.com 1.10,2013-02-09 10:37:00,
2013-02-09 05:52:00,30.7,25.0,30.30,NW,321,17.0,20.0,80,0.00,,,0.00,weatherlink.com 1.10,2013-02-09 10:52:00,
2013-02-09 06:07:00,30.5,25.0,30.30,North,349,14.0,23.0,79,0.00,,,0.00,weatherlink.com 1.10,2013-02-09 11:07:00,
2013-02-09 06:22:00,30.3,25.0,30.30,NNW,335,12.0,25.0,79,0.00,,,0.00,weatherlink.com 1.10,2013-02-09 11:22:00,
2013-02-09 06:37:00,30.2,25.0,30.31,NNW,339,11.0,20.0,80,0.00,,,0.00,weatherlink.com 1.10,2013-02-09 11:37:00,
2013-02-09 06:52:00,30.1,25.0,30.32,NNW,345,9.0,19.0,82,0.00,,,0.00,weatherlink.com 1.10,2013-02-09 11:52:00,
2013-02-09 07:09:00,29.8,25.0,30.33,NNE,26,9.0,16.0,81,0.00,,,0.00,weatherlink.com 1.10,2013-02-09 12:09:00,
2013-02-09 07:23:00,29.7,25.0,30.34,NNW,333,10.0,15.0,81,0.00,,,0.00,weatherlink.com 1.10,2013-02-09 12:23:00,
2013-02-09 07:38:00,29.7,25.0,30.34,NW,321,9.0,11.0,82,0.00,,,0.00,weatherlink.com 1.10,2013-02-09 12:38:00,
2013-02-09 07:53:00,29.6,25.0,30.35,NNW,340,6.0,13.0,82,0.00,,,0.00,weatherlink.com 1.10,2013-02-09 12:53:00,
2013-02-09 08:08:00,29.6,24.0,30.36,NNW,345,7.0,13.0,81,0.00,,,0.00,weatherlink.com 1.10,2013-02-09 13:08:00,
2013-02-09 08:23:00,29.9,24.0,30.36,NNE,23,5.0,13.0,80,0.00,,,0.00,weatherlink.com 1.10,2013-02-09 13:23:00,
2013-02-09 08:38:00,30.6,25.0,30.37,NNE,19,6.0,11.0,79,0.00,,,0.00,weatherlink.com 1.10,2013-02-09 13:38:00,
2013-02-09 08:53:00,31.3,25.0,30.38,NNW,328,8.0,13.0,77,0.00,,,0.00,weatherlink.com 1.10,2013-02-09 13:53:00,
2013-02-09 09:08:00,31.6,25.0,30.38,NNE,19,8.0,15.0,77,0.00,,,0.00,weatherlink.com 1.10,2013-02-09 14:08:00,
2013-02-09 09:23:00,32.2,25.0,30.38,North,1,8.0,15.0,75,0.00,,,0.00,weatherlink.com 1.10,2013-02-09 14:23:00,
2013-02-09 09:38:00,32.9,25.0,30.38,NE,38,8.0,13.0,73,0.00,,,0.00,weatherlink.com 1.10,2013-02-09 14:38:00,
2013-02-09 09:53:00,34.0,25.0,30.39,NNE,16,4.0,11.0,70,0.00,,,0.00,weatherlink.com 1.10,2013-02-09 14:53:00,
2013-02-09 10:08:00,34.9,25.0,30.38,NNE,15,7.0,12.0,68,0.00,,,0.00,weatherlink.com 1.10,2013-02-09 15:08:00,
2013-02-09 10:23:00,36.1,24.0,30.38,NNE,26,4.0,12.0,62,0.00,,,0.00,weatherlink.com 1.10,2013-02-09 15:23:00,
2013-02-09 10:38:00,37.1,25.0,30.38,NNE,13,6.0,10.0,61,0.00,,,0.00,weatherlink.com 1.10,2013-02-09 15:38:00,
2013-02-09 10:53:00,38.5,23.0,30.38,NNE,13,4.0,10.0,55,0.00,,,0.00,weatherlink.com 1.10,2013-02-09 15:53:00,
2013-02-09 11:08:00,39.7,23.0,30.38,North,353,7.0,12.0,51,0.00,,,0.00,weatherlink.com 1.10,2013-02-09 16:08:00,
2013-02-09 11:23:00,41.1,22.0,30.38,NNE,15,5.0,7.0,47,0.00,,,0.00,weatherlink.com 1.10,2013-02-09 16:23:00,
2013-02-09 11:38:00,42.3,21.0,30.38,North,353,4.0,9.0,42,0.00,,,0.00,weatherlink.com 1.10,2013-02-09 16:38:00,
2013-02-09 11:53:00,42.8,20.0,30.38,WNW,288,5.0,10.0,40,0.00,,,0.00,weatherlink.com 1.10,2013-02-09 16:53:00,
2013-02-09 12:08:00,44.0,20.0,30.38,NNW,331,3.0,9.0,38,0.00,,,0.00,weatherlink.com 1.10,2013-02-09 17:08:00,
2013-02-09 12:23:00,45.4,18.0,30.37,NW,316,0.0,9.0,34,0.00,,,0.00,weatherlink.com 1.10,2013-02-09 17:23:00,
2013-02-09 12:38:00,46.9,18.0,30.36,North,354,3.0,10.0,32,0.00,,,0.00,weatherlink.com 1.10,2013-02-09 17:38:00,
2013-02-09 12:53:00,46.9,16.0,30.35,NNW,347,1.0,8.0,29,0.00,,,0.00,weatherlink.com 1.10,2013-02-09 17:53:00,
2013-02-09 13:09:00,48.1,15.0,30.35,NE,36,3.0,9.0,27,0.00,,,0.00,weatherlink.com 1.10,2013-02-09 18:09:00,
2013-02-09 13:24:00,49.5,17.0,30.34,NNW,347,4.0,6.0,28,0.00,,,0.00,weatherlink.com 1.10,2013-02-09 18:24:00,
2013-02-09 13:39:00,49.4,15.0,30.34,NNE,13,5.0,10.0,25,0.00,,,0.00,weatherlink.com 1.10,2013-02-09 18:39:00,
2013-02-09 13:54:00,50.4,17.0,30.34,NNW,332,3.0,9.0,26,0.00,,,0.00,weatherlink.com 1.10,2013-02-09 18:54:00,
2013-02-09 14:09:00,51.1,16.0,30.32,East,98,0.0,6.0,25,0.00,,,0.00,weatherlink.com 1.10,2013-02-09 19:09:00,
2013-02-09 14:24:00,52.8,18.0,30.32,NNW,345,6.0,7.0,25,0.00,,,0.00,weatherlink.com 1.10,2013-02-09 19:24:00,
2013-02-09 14:39:00,52.8,18.0,30.31,North,359,1.0,4.0,25,0.00,,,0.00,weatherlink.com 1.10,2013-02-09 19:39:00,
2013-02-09 14:54:00,52.9,16.0,30.31,NE,37,5.0,9.0,23,0.00,,,0.00,weatherlink.com 1.10,2013-02-09 19:54:00,
2013-02-09 15:09:00,53.3,16.0,30.31,NNW,342,5.0,8.0,23,0.00,,,0.00,weatherlink.com 1.10,2013-02-09 20:09:00,
2013-02-09 15:24:00,53.7,14.0,30.30,NNE,23,0.0,7.0,21,0.00,,,0.00,weatherlink.com 1.10,2013-02-09 20:24:00,
2013-02-09 15:39:00,54.5,15.0,30.30,North,8,1.0,5.0,21,0.00,,,0.00,weatherlink.com 1.10,2013-02-09 20:39:00,
2013-02-09 15:54:00,54.5,14.0,30.29,NNW,344,5.0,7.0,20,0.00,,,0.00,weatherlink.com 1.10,2013-02-09 20:54:00,
2013-02-09 16:09:00,54.7,16.0,30.30,NNW,340,2.0,6.0,22,0.00,,,0.00,weatherlink.com 1.10,2013-02-09 21:09:00,
2013-02-09 16:24:00,55.0,13.0,30.30,North,8,2.0,6.0,19,0.00,,,0.00,weatherlink.com 1.10,2013-02-09 21:24:00,
2013-02-09 16:39:00,55.5,16.0,30.30,NNW,328,2.0,3.0,21,0.00,,,0.00,weatherlink.com 1.10,2013-02-09 21:39:00,
2013-02-09 16:54:00,55.5,17.0,30.30,NW,323,0.0,2.0,22,0.00,,,0.00,weatherlink.com 1.10,2013-02-09 21:54:00,
2013-02-09 17:09:00,54.9,14.0,30.30,NNW,335,3.0,3.0,20,0.00,,,0.00,weatherlink.com 1.10,2013-02-09 22:09:00,
2013-02-09 17:24:00,54.2,17.0,30.30,NW,319,0.0,2.0,23,0.00,,,0.00,weatherlink.com 1.10,2013-02-09 22:24:00,
2013-02-09 17:39:00,51.5,21.0,30.30,SW,214,0.0,1.0,30,0.00,,,0.00,weatherlink.com 1.10,2013-02-09 22:39:00,
2013-02-09 17:54:00,47.6,29.0,30.30,SSW,207,0.0,1.0,49,0.00,,,0.00,weatherlink.com 1.10,2013-02-09 22:54:00,
2013-02-09 18:09:00,44.9,27.0,30.30,SSW,208,0.0,0.0,50,0.00,,,0.00,weatherlink.com 1.10,2013-02-09 23:09:00,
2013-02-09 18:24:00,42.5,28.0,30.31,SSW,208,0.0,1.0,58,0.00,,,0.00,weatherlink.com 1.10,2013-02-09 23:24:00,
2013-02-09 18:39:00,41.0,30.0,30.31,SSW,205,0.0,1.0,66,0.00,,,0.00,weatherlink.com 1.10,2013-02-09 23:39:00,
2013-02-09 18:54:00,39.7,30.0,30.31,SW,217,0.0,2.0,68,0.00,,,0.00,weatherlink.com 1.10,2013-02-09 23:54:00,
2013-02-09 19:09:00,39.0,30.0,30.32,SSW,210,1.0,2.0,71,0.00,,,0.00,weatherlink.com 1.10,2013-02-10 00:09:00,
2013-02-09 19:24:00,37.8,30.0,30.33,SSW,201,0.0,1.0,72,0.00,,,0.00,weatherlink.com 1.10,2013-02-10 00:24:00,
2013-02-09 19:39:00,36.6,28.0,30.33,SW,217,0.0,2.0,72,0.00,,,0.00,weatherlink.com 1.10,2013-02-10 00:39:00,
2013-02-09 19:54:00,36.2,28.0,30.33,SSW,195,0.0,1.0,73,0.00,,,0.00,weatherlink.com 1.10,2013-02-10 00:54:00,
2013-02-09 20:09:00,35.7,28.0,30.34,SSE,165,0.0,3.0,74,0.00,,,0.00,weatherlink.com 1.10,2013-02-10 01:09:00,
2013-02-09 20:24:00,35.3,28.0,30.34,SW,217,0.0,1.0,75,0.00,,,0.00,weatherlink.com 1.10,2013-02-10 01:24:00,
2013-02-09 20:39:00,34.7,28.0,30.35,West,263,0.0,0.0,76,0.00,,,0.00,weatherlink.com 1.10,2013-02-10 01:39:00,
2013-02-09 20:54:00,34.0,28.0,30.35,SW,224,0.0,1.0,80,0.00,,,0.00,weatherlink.com 1.10,2013-02-10 01:54:00,
2013-02-09 21:09:00,33.6,28.0,30.35,SSW,193,0.0,2.0,81,0.00,,,0.00,weatherlink.com 1.10,2013-02-10 02:09:00,
2013-02-09 21:24:00,33.2,28.0,30.36,SW,214,0.0,1.0,81,0.00,,,0.00,weatherlink.com 1.10,2013-02-10 02:24:00,
2013-02-09 21:39:00,33.0,28.0,30.36,SW,217,3.0,3.0,82,0.00,,,0.00,weatherlink.com 1.10,2013-02-10 02:39:00,
2013-02-09 21:54:00,32.7,28.0,30.36,SSE,153,0.0,3.0,83,0.00,,,0.00,weatherlink.com 1.10,2013-02-10 02:54:00,
2013-02-09 22:09:00,32.6,28.0,30.36,SSW,210,0.0,4.0,83,0.00,,,0.00,weatherlink.com 1.10,2013-02-10 03:09:00,
2013-02-09 22:24:00,32.3,28.0,30.36,WSW,256,0.0,1.0,83,0.00,,,0.00,weatherlink.com 1.10,2013-02-10 03:24:00,
2013-02-09 22:39:00,32.0,28.0,30.36,SW,217,0.0,1.0,84,0.00,,,0.00,weatherlink.com 1.10,2013-02-10 03:39:00,
2013-02-09 22:54:00,31.7,28.0,30.36,WSW,242,0.0,0.0,85,0.00,,,0.00,weatherlink.com 1.10,2013-02-10 03:54:00,
2013-02-09 23:09:00,31.6,29.0,30.36,WSW,242,0.0,1.0,88,0.00,,,0.00,weatherlink.com 1.10,2013-02-10 04:09:00,
2013-02-09 23:24:00,31.7,28.0,30.36,SSW,210,0.0,1.0,87,0.00,,,0.00,weatherlink.com 1.10,2013-02-10 04:24:00,
2013-02-09 23:39:00,32.0,29.0,30.36,North,4,2.0,3.0,89,0.00,,,0.00,weatherlink.com 1.10,2013-02-10 04:39:00,
2013-02-09 23:54:00,32.3,30.0,30.36,NNW,328,0.0,3.0,89,0.00,,,0.00,weatherlink.com 1.10,2013-02-10 04:54:00,